Lome, Togo

7:30 PM GMT on September 01, 2015 (GMT +0000)
Tokoin | | Change Station
CLOSE
Current Station
Airport
Location: Lome,
Elevation: 82 ft
Nearby Weather Stations

Elev 82 ft 6.17 °N, 1.25 °E | Updated 30 minutes ago

Partly Cloudy
Partly Cloudy
77 °F
Feels Like 77 °F
N
16
Wind Variable Wind from SSW

Today
High -- | Low -- °F
--% Chance of Precip.
Yesterday
High -- | Low -- °F
Precip. -- in
5:48 AM 6:01 PM
Waning Gibbous, 87% visible
Pressure 29.92 in
Visibility 6.2 miles
Clouds Few 1000 ft
Dew Point 75 °F
Humidity 94%
Rainfall 0.00 in
Snow Depth Not available.
UV 0 out of 12
Pollen Not available.
Air Quality Not available.
Flu Activity Not available.
METAR DXXX 011900Z 21014KT 9999 FEW010 25/24 Q1013 NOSIG
Pressure 29.92 in
Visibility 6.2 miles
Clouds Few 1000 ft
Dew Point 75 °F
Humidity 94%
Rainfall 0.00 in
Snow Depth Not available.
UV 0 out of 12
Pollen Not available.
Air Quality Not available.
Flu Activity Not available.
METAR DXXX 011900Z 21014KT 9999 FEW010 25/24 Q1013 NOSIG

10-Day Weather Forecast

×

Almanac

Astronomy

Sep. 01, 2015 Rise Set
Actual Time
Civil Twilight
Nautical Twilight
Astronomical Twilight
Moon
Length of Visible Light
Length of Day
Tomorrow will be .
, % of the Moon is Illuminated

Today's Extremes

Country Highs Country Lows

Community

WunderPhotos

Upload Photos

1,851,597 photos uploaded!

WunderBlogs® & News

Nearby

Air Quality

  Air Quality AQ Index Pollutant
Not available.

Snow Depth

Station Depth Elevation

Earthquake Activity

City Distance Mag. Time & Date
Minimum magnitude displayed is 2.5.

Coastal Water Temperatures

Place Temperature

Stations

Nearby Weather Stations

Station Location Temp. Windchill Dew Point Humidity Wind Precip. Elev Updated Type